EN

Hourly Weather La Garenne-Colombes

Today, 30 July, Friday

Time Temperature Precipitation Wind Pressure Humidity
00:00 +17°C° 0 mm 2 mps 752 mmHg 68%
01:00 +17°C° 0 mm 2 mps 752 mmHg 71%
02:00 +16°C° 0 mm 2 mps 752 mmHg 73%
03:00 +16°C° 0 mm 2 mps 752 mmHg 76%
04:00 +16°C° 0 mm 3 mps 751 mmHg 76%
05:00 +17°C° 0 mm 3 mps 751 mmHg 76%
06:00 +17°C° 0 mm 4 mps 751 mmHg 75%
07:00 +18°C° 0 mm 4 mps 751 mmHg 74%
08:00 +19°C° 0 mm 5 mps 751 mmHg 73%
09:00 +20°C° 0 mm 6 mps 751 mmHg 72%
10:00 +21°C° 0 mm 6 mps 751 mmHg 63%
11:00 +22°C° 0 mm 6 mps 751 mmHg 54%
12:00 +23°C° 0 mm 7 mps 751 mmHg 45%
13:00 +23°C° 0 mm 7 mps 751 mmHg 44%
14:00 +23°C° 0 mm 7 mps 751 mmHg 44%
15:00 +24°C° 0 mm 7 mps 751 mmHg 44%
16:00 +23°C° 0 mm 7 mps 751 mmHg 47%
17:00 +22°C° 0 mm 6 mps 751 mmHg 50%
18:00 +22°C° 0 mm 5 mps 751 mmHg 53%
19:00 +20°C° 0 mm 5 mps 752 mmHg 56%
20:00 +19°C° 0 mm 4 mps 752 mmHg 60%
21:00 +18°C° 0 mm 4 mps 752 mmHg 64%
22:00 +17°C° 0 mm 4 mps 752 mmHg 68%
23:00 +17°C° 0 mm 4 mps 752 mmHg 72%

Tomorrow, 31 July, Saturday

Time Temperature Precipitation Wind Pressure Humidity
00:00 +15°C° 0 mm 4 mps 752 mmHg 76%
01:00 +15°C° 0 mm 4 mps 752 mmHg 80%
02:00 +14°C° 0 mm 4 mps 752 mmHg 84%
03:00 +14°C° 0 mm 3 mps 752 mmHg 87%
04:00 +14°C° 0 mm 3 mps 752 mmHg 85%
05:00 +14°C° 0 mm 3 mps 753 mmHg 83%
06:00 +16°C° 0 mm 3 mps 753 mmHg 80%
07:00 +17°C° 0 mm 4 mps 753 mmHg 74%
08:00 +18°C° 0 mm 4 mps 753 mmHg 69%
09:00 +19°C° 0 mm 4 mps 753 mmHg 63%
10:00 +20°C° 0 mm 4 mps 753 mmHg 58%
11:00 +22°C° 0 mm 4 mps 753 mmHg 53%
12:00 +23°C° 0 mm 4 mps 752 mmHg 48%
13:00 +23°C° 0 mm 4 mps 752 mmHg 48%
14:00 +23°C° 0 mm 4 mps 752 mmHg 48%
15:00 +23°C° 0 mm 4 mps 752 mmHg 47%
16:00 +22°C° 0.1 mm 3 mps 752 mmHg 51%
17:00 +22°C° 0.1 mm 3 mps 752 mmHg 55%
18:00 +21°C° 0.1 mm 2 mps 752 mmHg 59%
19:00 +20°C° 0 mm 2 mps 752 mmHg 64%
20:00 +19°C° 0 mm 2 mps 752 mmHg 69%
21:00 +19°C° 0 mm 1 mps 752 mmHg 74%
22:00 +18°C° 0 mm 1 mps 753 mmHg 76%
23:00 +16°C° 0 mm 1 mps 753 mmHg 79%

Day after tomorrow, 1 August, Sunday

Time Temperature Precipitation Wind Pressure Humidity
00:00 +16°C° 0 mm 1 mps 753 mmHg 82%
01:00 +15°C° 0 mm 1 mps 753 mmHg 83%
02:00 +15°C° 0 mm 1 mps 753 mmHg 84%
03:00 +15°C° 0 mm 1 mps 753 mmHg 86%
04:00 +15°C° 0 mm 1 mps 753 mmHg 84%
05:00 +15°C° 0 mm 2 mps 753 mmHg 83%
06:00 +15°C° 0 mm 2 mps 753 mmHg 81%
07:00 +17°C° 0 mm 2 mps 753 mmHg 74%
08:00 +18°C° 0 mm 3 mps 753 mmHg 67%
09:00 +20°C° 0 mm 3 mps 753 mmHg 59%
10:00 +21°C° 0 mm 3 mps 753 mmHg 55%
11:00 +22°C° 0 mm 3 mps 753 mmHg 50%
12:00 +25°C° 0 mm 3 mps 753 mmHg 45%
13:00 +24°C° 0 mm 3 mps 753 mmHg 47%
14:00 +24°C° 0 mm 3 mps 753 mmHg 48%
15:00 +22°C° 0 mm 3 mps 753 mmHg 50%
16:00 +22°C° 0 mm 3 mps 753 mmHg 52%
17:00 +23°C° 0 mm 2 mps 753 mmHg 54%
18:00 +21°C° 0 mm 2 mps 753 mmHg 57%
19:00 +21°C° 0.2 mm 1 mps 753 mmHg 63%
20:00 +20°C° 0.2 mm 1 mps 754 mmHg 69%
21:00 +19°C° 0.2 mm 1 mps 754 mmHg 75%
22:00 +18°C° 0.1 mm 1 mps 754 mmHg 78%
23:00 +18°C° 0.1 mm 1 mps 754 mmHg 81%

2 August, Monday

Time Temperature Precipitation Wind Pressure Humidity
00:00 +16°C° 0.1 mm 1 mps 754 mmHg 85%
01:00 +16°C° 0 mm 1 mps 754 mmHg 86%
02:00 +15°C° 0 mm 1 mps 754 mmHg 88%
03:00 +15°C° 0 mm 1 mps 754 mmHg 90%
04:00 +15°C° 0 mm 1 mps 755 mmHg 89%
05:00 +16°C° 0 mm 1 mps 755 mmHg 87%
06:00 +16°C° 0 mm 2 mps 755 mmHg 86%
07:00 +17°C° 0 mm 2 mps 755 mmHg 80%
08:00 +19°C° 0 mm 3 mps 755 mmHg 73%
09:00 +20°C° 0 mm 3 mps 755 mmHg 67%
10:00 +21°C° 0.3 mm 3 mps 755 mmHg 65%
11:00 +21°C° 0.3 mm 4 mps 755 mmHg 63%
12:00 +22°C° 0.3 mm 4 mps 755 mmHg 62%
13:00 +22°C° 0.2 mm 4 mps 755 mmHg 61%
14:00 +22°C° 0.2 mm 4 mps 755 mmHg 60%
15:00 +22°C° 0.2 mm 4 mps 755 mmHg 59%
16:00 +21°C° 0.2 mm 3 mps 755 mmHg 63%
17:00 +21°C° 0.2 mm 2 mps 754 mmHg 66%
18:00 +21°C° 0.2 mm 1 mps 754 mmHg 70%
19:00 +19°C° 0.1 mm 2 mps 755 mmHg 71%
20:00 +18°C° 0.1 mm 2 mps 755 mmHg 72%
21:00 +17°C° 0.1 mm 3 mps 755 mmHg 72%
22:00 +17°C° 0 mm 2 mps 755 mmHg 73%
23:00 +17°C° 0 mm 2 mps 755 mmHg 73%

3 August, Tuesday

Time Temperature Precipitation Wind Pressure Humidity
00:00 +16°C° 0 mm 1 mps 755 mmHg 73%
01:00 +15°C° 0 mm 1 mps 755 mmHg 77%
02:00 +15°C° 0 mm 2 mps 755 mmHg 80%
03:00 +14°C° 0 mm 2 mps 755 mmHg 84%
04:00 +14°C° 0 mm 2 mps 755 mmHg 84%
05:00 +14°C° 0 mm 2 mps 756 mmHg 84%
06:00 +15°C° 0 mm 2 mps 756 mmHg 84%
07:00 +16°C° 0 mm 3 mps 756 mmHg 76%
08:00 +18°C° 0 mm 3 mps 756 mmHg 68%
09:00 +19°C° 0 mm 3 mps 756 mmHg 61%
10:00 +20°C° 0 mm 3 mps 756 mmHg 56%
11:00 +21°C° 0 mm 3 mps 756 mmHg 51%
12:00 +22°C° 0 mm 3 mps 756 mmHg 46%
13:00 +22°C° 0 mm 3 mps 755 mmHg 46%
14:00 +24°C° 0 mm 3 mps 755 mmHg 45%
15:00 +24°C° 0 mm 3 mps 755 mmHg 45%
16:00 +22°C° 0 mm 3 mps 755 mmHg 50%
17:00 +21°C° 0 mm 3 mps 755 mmHg 55%
18:00 +20°C° 0 mm 3 mps 755 mmHg 60%
19:00 +18°C° 0.7 mm 3 mps 755 mmHg 70%
20:00 +17°C° 0.7 mm 3 mps 756 mmHg 80%
21:00 +16°C° 0.7 mm 2 mps 756 mmHg 90%
22:00 +16°C° 0.3 mm 2 mps 756 mmHg 90%
23:00 +15°C° 0.3 mm 2 mps 756 mmHg 90%

4 August, Wednesday

Time Temperature Precipitation Wind Pressure Humidity
00:00 +15°C° 0.3 mm 2 mps 756 mmHg 90%
01:00 +15°C° 0 mm 2 mps 756 mmHg 90%
02:00 +15°C° 0 mm 2 mps 756 mmHg 90%
03:00 +15°C° 0 mm 2 mps 755 mmHg 90%
04:00 +15°C° 0 mm 2 mps 756 mmHg 89%
05:00 +15°C° 0 mm 2 mps 756 mmHg 89%
06:00 +15°C° 0 mm 2 mps 756 mmHg 89%
07:00 +15°C° 0.1 mm 2 mps 756 mmHg 90%
08:00 +15°C° 0.1 mm 2 mps 756 mmHg 91%
09:00 +14°C° 0.1 mm 3 mps 756 mmHg 91%
10:00 +16°C° 0.2 mm 3 mps 756 mmHg 91%
11:00 +16°C° 0.2 mm 3 mps 756 mmHg 90%
12:00 +17°C° 0.2 mm 3 mps 756 mmHg 90%
13:00 +18°C° 0.3 mm 4 mps 755 mmHg 82%
14:00 +20°C° 0.3 mm 4 mps 755 mmHg 74%
15:00 +22°C° 0.3 mm 4 mps 754 mmHg 67%
16:00 +21°C° 0.1 mm 4 mps 754 mmHg 68%
17:00 +21°C° 0.1 mm 3 mps 754 mmHg 69%
18:00 +21°C° 0.1 mm 2 mps 754 mmHg 70%
19:00 +20°C° 0 mm 2 mps 754 mmHg 74%
20:00 +20°C° 0 mm 1 mps 754 mmHg 78%
21:00 +19°C° 0 mm 1 mps 754 mmHg 82%
22:00 +18°C° 0 mm 1 mps 754 mmHg 83%
23:00 +18°C° 0 mm 1 mps 754 mmHg 85%
Show more